Time,TemperatureF,DewpointF,PressureIn,WindDirection,WindDirectionDegrees,WindSpeedMPH,WindSpeedGustMPH,Humidity,HourlyPrecipIn,Conditions,Clouds,dailyrainin,SoftwareType,DateUTC
2013-09-15 00:00:00,49.0,47.6,21.54,WNW,286,0.0,0.0,95,0.00,CLR,,0.00,WeatherDisplay:10.37,2013-09-15 04:00:00,
2013-09-15 00:01:00,49.0,47.6,21.54,WNW,286,0.0,0.0,95,0.00,CLR,,0.00,WeatherDisplay:10.37,2013-09-15 04:01:00,
2013-09-15 00:02:00,48.9,47.5,21.54,WNW,286,0.0,0.0,95,0.00,CLR,,0.00,WeatherDisplay:10.37,2013-09-15 04:02:00,
2013-09-15 00:07:00,48.7,47.3,21.54,WNW,286,0.0,0.0,95,0.00,CLR,,0.00,WeatherDisplay:10.37,2013-09-15 04:07:00,
2013-09-15 00:12:00,48.5,47.1,21.54,WNW,286,0.0,0.0,95,0.00,CLR,,0.00,WeatherDisplay:10.37,2013-09-15 04:12:00,
2013-09-15 00:17:00,48.3,46.9,21.54,WNW,286,0.0,0.0,95,0.00,CLR,,0.00,WeatherDisplay:10.37,2013-09-15 04:17:00,
2013-09-15 00:22:00,48.2,46.8,21.54,WNW,286,0.0,0.0,95,0.00,CLR,,0.00,WeatherDisplay:10.37,2013-09-15 04:22:00,
2013-09-15 00:27:00,48.2,47.9,21.54,WNW,286,0.0,0.0,99,0.00,CLR,,0.00,WeatherDisplay:10.37,2013-09-15 04:27:00,
2013-09-15 00:32:00,48.2,46.8,21.54,WNW,286,0.0,0.0,95,0.00,CLR,,0.00,WeatherDisplay:10.37,2013-09-15 04:32:00,
2013-09-15 00:37:00,48.1,46.7,21.54,WNW,286,0.0,0.0,95,0.00,CLR,,0.00,WeatherDisplay:10.37,2013-09-15 04:37:00,
2013-09-15 00:42:00,48.1,46.7,21.54,WNW,286,0.0,0.0,95,0.00,CLR,,0.00,WeatherDisplay:10.37,2013-09-15 04:42:00,
2013-09-15 00:47:00,48.0,46.6,21.54,WNW,286,0.0,0.0,95,0.00,CLR,,0.00,WeatherDisplay:10.37,2013-09-15 04:47:00,
2013-09-15 00:52:00,47.9,46.5,21.54,WNW,286,0.0,0.0,95,0.00,CLR,,0.00,WeatherDisplay:10.37,2013-09-15 04:52:00,
2013-09-15 00:57:00,47.9,46.5,21.54,WNW,286,0.0,0.0,95,0.00,CLR,,0.00,WeatherDisplay:10.37,2013-09-15 04:57:00,
2013-09-15 01:02:00,47.8,46.7,21.54,WNW,286,0.0,0.0,96,0.00,CLR,,0.00,WeatherDisplay:10.37,2013-09-15 05:02:00,
2013-09-15 01:07:00,47.8,46.7,21.54,WNW,286,0.0,0.0,96,0.00,CLR,,0.00,WeatherDisplay:10.37,2013-09-15 05:07:00,
2013-09-15 01:12:00,47.8,46.4,21.54,WNW,286,0.0,0.0,95,0.00,CLR,,0.00,WeatherDisplay:10.37,2013-09-15 05:12:00,
2013-09-15 01:17:00,47.7,46.3,21.54,WNW,286,0.0,0.0,95,0.00,CLR,,0.00,WeatherDisplay:10.37,2013-09-15 05:17:00,
2013-09-15 01:22:00,47.6,46.2,21.54,WNW,286,0.0,0.0,95,0.00,CLR,,0.00,WeatherDisplay:10.37,2013-09-15 05:22:00,
2013-09-15 01:27:00,47.5,46.4,21.54,WNW,286,0.0,0.0,96,0.00,CLR,,0.00,WeatherDisplay:10.37,2013-09-15 05:27:00,
2013-09-15 01:32:00,47.4,46.3,21.54,WNW,286,0.0,0.0,96,0.00,CLR,,0.00,WeatherDisplay:10.37,2013-09-15 05:32:00,
2013-09-15 01:37:00,47.3,46.2,21.54,WNW,286,0.0,0.0,96,0.00,CLR,,0.00,WeatherDisplay:10.37,2013-09-15 05:37:00,
2013-09-15 01:42:00,47.0,45.9,21.54,WNW,286,0.0,0.0,96,0.00,CLR,,0.00,WeatherDisplay:10.37,2013-09-15 05:42:00,
2013-09-15 01:47:00,46.9,45.8,21.54,WNW,286,0.0,0.0,96,0.00,CLR,,0.00,WeatherDisplay:10.37,2013-09-15 05:47:00,
2013-09-15 01:52:00,46.9,45.8,21.54,WNW,286,0.0,0.0,96,0.00,CLR,,0.00,WeatherDisplay:10.37,2013-09-15 05:52:00,
2013-09-15 01:57:00,46.8,45.7,21.54,WNW,286,0.0,0.0,96,0.00,CLR,,0.00,WeatherDisplay:10.37,2013-09-15 05:57:00,
2013-09-15 02:02:00,46.7,45.6,21.54,WNW,286,0.0,0.0,96,0.00,CLR,,0.00,WeatherDisplay:10.37,2013-09-15 06:02:00,
2013-09-15 02:07:00,46.7,45.6,21.54,WNW,286,0.0,0.0,96,0.00,CLR,,0.00,WeatherDisplay:10.37,2013-09-15 06:07:00,
2013-09-15 02:12:00,46.7,45.6,21.54,WNW,286,0.0,0.0,96,0.00,CLR,,0.00,WeatherDisplay:10.37,2013-09-15 06:12:00,
2013-09-15 02:17:00,46.7,45.6,21.54,WNW,286,0.0,0.0,96,0.00,CLR,,0.00,WeatherDisplay:10.37,2013-09-15 06:17:00,
2013-09-15 02:22:00,46.7,45.6,21.54,WNW,286,0.0,0.0,96,0.00,CLR,,0.00,WeatherDisplay:10.37,2013-09-15 06:22:00,
2013-09-15 02:27:00,46.6,45.5,21.54,WNW,286,0.0,0.0,96,0.00,CLR,,0.00,WeatherDisplay:10.37,2013-09-15 06:27:00,
2013-09-15 02:32:00,46.7,45.6,21.54,WNW,286,0.0,0.0,96,0.00,CLR,,0.00,WeatherDisplay:10.37,2013-09-15 06:32:00,
2013-09-15 02:37:00,46.8,45.7,21.54,WNW,286,0.0,0.0,96,0.00,CLR,,0.00,WeatherDisplay:10.37,2013-09-15 06:37:00,
2013-09-15 02:42:00,46.8,45.7,21.54,WNW,286,0.0,0.0,96,0.00,CLR,,0.00,WeatherDisplay:10.37,2013-09-15 06:42:00,
2013-09-15 02:47:00,46.8,45.7,21.54,WNW,286,0.0,0.0,96,0.00,CLR,,0.00,WeatherDisplay:10.37,2013-09-15 06:47:00,
2013-09-15 02:52:00,46.8,45.7,21.54,WNW,286,0.0,0.0,96,0.00,CLR,,0.00,WeatherDisplay:10.37,2013-09-15 06:52:00,
2013-09-15 02:57:00,46.8,45.7,21.54,WNW,286,0.0,0.0,96,0.00,CLR,,0.00,WeatherDisplay:10.37,2013-09-15 06:57:00,
2013-09-15 03:02:00,46.8,45.7,21.54,WNW,286,0.0,0.0,96,0.00,CLR,,0.00,WeatherDisplay:10.37,2013-09-15 07:02:00,
2013-09-15 03:07:00,46.8,45.7,21.54,WNW,286,0.0,0.0,96,0.00,CLR,,0.00,WeatherDisplay:10.37,2013-09-15 07:07:00,
2013-09-15 03:12:00,46.9,45.8,21.54,WNW,286,0.0,0.0,96,0.00,CLR,,0.00,WeatherDisplay:10.37,2013-09-15 07:12:00,
2013-09-15 03:17:00,47.0,45.9,21.54,WNW,286,0.0,0.0,96,0.00,CLR,,0.00,WeatherDisplay:10.37,2013-09-15 07:17:00,
2013-09-15 03:22:00,47.2,46.1,21.54,WNW,286,0.0,0.0,96,0.00,CLR,,0.00,WeatherDisplay:10.37,2013-09-15 07:22:00,
2013-09-15 03:27:00,47.1,46.0,21.54,WNW,286,0.0,0.0,96,0.00,CLR,,0.00,WeatherDisplay:10.37,2013-09-15 07:27:00,
2013-09-15 03:32:00,47.1,46.0,21.54,WNW,286,0.0,0.0,96,0.00,CLR,,0.00,WeatherDisplay:10.37,2013-09-15 07:32:00,
2013-09-15 03:37:00,47.0,45.9,21.54,WNW,286,0.0,0.0,96,0.00,CLR,,0.00,WeatherDisplay:10.37,2013-09-15 07:37:00,
2013-09-15 03:42:00,46.9,45.8,21.54,WNW,286,0.0,0.0,96,0.00,CLR,,0.00,WeatherDisplay:10.37,2013-09-15 07:42:00,
2013-09-15 03:47:00,46.6,45.5,21.54,WNW,286,0.0,0.0,96,0.00,CLR,,0.00,WeatherDisplay:10.37,2013-09-15 07:47:00,
2013-09-15 03:52:00,46.5,45.4,21.54,WNW,286,0.0,0.0,96,0.00,CLR,,0.00,WeatherDisplay:10.37,2013-09-15 07:52:00,
2013-09-15 03:57:00,46.5,45.4,21.54,WNW,286,0.0,0.0,96,0.00,CLR,,0.00,WeatherDisplay:10.37,2013-09-15 07:57:00,
2013-09-15 04:02:00,46.5,45.4,21.54,WNW,286,0.0,0.0,96,0.00,CLR,,0.00,WeatherDisplay:10.37,2013-09-15 08:02:00,
2013-09-15 04:07:00,46.5,45.4,21.54,WNW,286,0.0,0.0,96,0.00,CLR,,0.00,WeatherDisplay:10.37,2013-09-15 08:07:00,
2013-09-15 04:12:00,46.3,45.2,21.54,WNW,286,0.0,0.0,96,0.00,CLR,,0.00,WeatherDisplay:10.37,2013-09-15 08:12:00,
2013-09-15 04:17:00,46.3,45.2,21.54,WNW,286,0.0,0.0,96,0.00,CLR,,0.00,WeatherDisplay:10.37,2013-09-15 08:17:00,
2013-09-15 04:22:00,46.3,45.2,21.54,WNW,286,0.0,0.0,96,0.00,CLR,,0.00,WeatherDisplay:10.37,2013-09-15 08:22:00,
2013-09-15 04:28:00,46.4,45.3,21.54,WNW,286,0.0,0.0,96,0.00,CLR,,0.00,WeatherDisplay:10.37,2013-09-15 08:28:00,
2013-09-15 04:33:00,46.3,45.2,21.54,WNW,286,0.0,0.0,96,0.00,CLR,,0.00,WeatherDisplay:10.37,2013-09-15 08:33:00,
2013-09-15 04:38:00,46.1,45.0,21.54,WNW,286,0.0,0.0,96,0.00,CLR,,0.00,WeatherDisplay:10.37,2013-09-15 08:38:00,
2013-09-15 04:43:00,46.1,45.0,21.54,WNW,286,0.0,0.0,96,0.00,CLR,,0.00,WeatherDisplay:10.37,2013-09-15 08:43:00,
2013-09-15 04:48:00,46.0,44.9,21.54,WNW,286,0.0,0.0,96,0.00,CLR,,0.00,WeatherDisplay:10.37,2013-09-15 08:48:00,
2013-09-15 04:53:00,46.0,44.9,21.54,WNW,286,0.0,0.0,96,0.01,RA,,0.01,WeatherDisplay:10.37,2013-09-15 08:53:00,
2013-09-15 04:58:00,46.0,44.9,21.54,WNW,286,0.0,0.0,96,0.01,RA,,0.01,WeatherDisplay:10.37,2013-09-15 08:58:00,
2013-09-15 05:03:00,46.1,45.0,21.54,WNW,286,0.0,0.0,96,0.01,,,0.01,WeatherDisplay:10.37,2013-09-15 09:03:00,
2013-09-15 05:08:00,46.1,45.0,21.54,WNW,286,0.0,0.0,96,0.01,CLR,,0.01,WeatherDisplay:10.37,2013-09-15 09:08:00,
2013-09-15 05:13:00,46.2,45.1,21.54,WNW,286,0.0,0.0,96,0.01,CLR,,0.01,WeatherDisplay:10.37,2013-09-15 09:13:00,
2013-09-15 05:18:00,46.1,45.0,21.54,WNW,286,0.0,0.0,96,0.01,CLR,,0.01,WeatherDisplay:10.37,2013-09-15 09:18:00,
2013-09-15 05:23:00,46.0,44.9,21.54,WNW,286,0.0,0.0,96,0.01,CLR,,0.01,WeatherDisplay:10.37,2013-09-15 09:23:00,
2013-09-15 05:28:00,46.0,44.9,21.54,WNW,286,0.0,0.0,96,0.01,CLR,,0.01,WeatherDisplay:10.37,2013-09-15 09:28:00,
2013-09-15 05:33:00,46.1,45.0,21.54,WNW,286,0.0,0.0,96,0.01,CLR,,0.01,WeatherDisplay:10.37,2013-09-15 09:33:00,
2013-09-15 05:38:00,46.2,45.1,21.54,WNW,286,0.0,0.0,96,0.01,CLR,,0.01,WeatherDisplay:10.37,2013-09-15 09:38:00,
2013-09-15 05:43:00,46.0,44.9,21.54,WNW,286,0.0,0.0,96,0.01,CLR,,0.01,WeatherDisplay:10.37,2013-09-15 09:43:00,
2013-09-15 05:48:00,45.9,44.8,21.54,WNW,286,0.0,0.0,96,0.01,CLR,,0.01,WeatherDisplay:10.37,2013-09-15 09:48:00,
2013-09-15 05:53:00,45.6,44.5,21.54,WNW,286,0.0,0.0,96,0.00,CLR,,0.01,WeatherDisplay:10.37,2013-09-15 09:53:00,
2013-09-15 05:58:00,45.4,44.3,21.54,WNW,286,0.0,0.0,96,0.00,CLR,,0.01,WeatherDisplay:10.37,2013-09-15 09:58:00,
2013-09-15 06:03:00,45.2,44.1,21.54,WNW,286,0.0,0.0,96,0.00,CLR,,0.01,WeatherDisplay:10.37,2013-09-15 10:03:00,
2013-09-15 06:08:00,45.1,44.0,21.54,WNW,286,0.0,0.0,96,0.00,CLR,,0.01,WeatherDisplay:10.37,2013-09-15 10:08:00,
2013-09-15 06:13:00,45.1,44.0,21.54,WNW,286,0.0,0.0,96,0.00,CLR,,0.01,WeatherDisplay:10.37,2013-09-15 10:13:00,
2013-09-15 06:18:00,45.3,44.2,21.54,WNW,286,0.0,0.0,96,0.00,CLR,,0.01,WeatherDisplay:10.37,2013-09-15 10:18:00,
2013-09-15 06:23:00,45.4,44.3,21.54,WNW,286,0.0,0.0,96,0.00,CLR,,0.01,WeatherDisplay:10.37,2013-09-15 10:23:00,
2013-09-15 06:28:00,45.5,44.4,21.54,WNW,286,0.0,0.0,96,0.00,CLR,,0.01,WeatherDisplay:10.37,2013-09-15 10:28:00,
2013-09-15 06:33:00,45.5,44.4,21.54,WNW,286,0.0,0.0,96,0.00,CLR,,0.01,WeatherDisplay:10.37,2013-09-15 10:33:00,
2013-09-15 06:38:00,45.3,44.2,21.54,WNW,286,0.0,0.0,96,0.00,CLR,,0.01,WeatherDisplay:10.37,2013-09-15 10:38:00,
2013-09-15 06:43:00,45.2,44.1,21.54,WNW,286,0.0,0.0,96,0.00,CLR,,0.01,WeatherDisplay:10.37,2013-09-15 10:43:00,
2013-09-15 06:48:00,45.1,44.0,21.54,WNW,286,0.0,0.0,96,0.00,CLR,,0.01,WeatherDisplay:10.37,2013-09-15 10:48:00,
2013-09-15 06:53:00,45.0,43.9,21.54,WNW,286,0.0,0.0,96,0.00,CLR,,0.01,WeatherDisplay:10.37,2013-09-15 10:53:00,
2013-09-15 06:58:00,45.0,43.9,21.54,WNW,286,0.0,0.0,96,0.00,CLR,,0.01,WeatherDisplay:10.37,2013-09-15 10:58:00,
2013-09-15 07:03:00,45.1,44.0,21.54,WNW,286,0.0,0.0,96,0.00,CLR,,0.01,WeatherDisplay:10.37,2013-09-15 11:03:00,
2013-09-15 07:08:00,45.2,44.1,21.54,WNW,286,0.0,0.0,96,0.00,CLR,,0.01,WeatherDisplay:10.37,2013-09-15 11:08:00,
2013-09-15 07:13:00,45.0,43.9,21.54,WNW,286,0.0,0.0,96,0.00,CLR,,0.01,WeatherDisplay:10.37,2013-09-15 11:13:00,
2013-09-15 07:18:00,45.0,43.9,21.54,WNW,286,0.0,0.0,96,0.00,CLR,,0.01,WeatherDisplay:10.37,2013-09-15 11:18:00,
2013-09-15 07:23:00,45.0,43.9,21.54,WNW,286,0.0,0.0,96,0.00,CLR,,0.01,WeatherDisplay:10.37,2013-09-15 11:23:00,
2013-09-15 07:28:00,44.9,43.8,21.54,WNW,286,0.0,0.0,96,0.00,CLR,,0.01,WeatherDisplay:10.37,2013-09-15 11:28:00,
2013-09-15 07:33:00,45.0,43.9,21.54,WNW,286,0.0,0.0,96,0.00,CLR,,0.01,WeatherDisplay:10.37,2013-09-15 11:33:00,
2013-09-15 07:38:00,45.0,43.9,21.54,WNW,286,0.0,0.0,96,0.00,CLR,,0.01,WeatherDisplay:10.37,2013-09-15 11:38:00,
2013-09-15 07:43:00,45.0,43.9,21.54,WNW,286,0.0,0.0,96,0.00,CLR,,0.01,WeatherDisplay:10.37,2013-09-15 11:43:00,
2013-09-15 07:48:00,45.3,44.2,21.54,WNW,286,0.0,0.0,96,0.00,CLR,,0.01,WeatherDisplay:10.37,2013-09-15 11:48:00,
2013-09-15 07:53:00,45.7,44.6,21.54,WNW,283,0.0,0.0,96,0.00,CLR,,0.01,WeatherDisplay:10.37,2013-09-15 11:53:00,
2013-09-15 07:58:00,46.0,45.2,21.54,WNW,283,0.0,0.0,97,0.00,CLR,,0.01,WeatherDisplay:10.37,2013-09-15 11:58:00,
2013-09-15 08:03:00,46.1,45.0,21.54,WNW,283,0.0,0.0,96,0.00,CLR,,0.01,WeatherDisplay:10.37,2013-09-15 12:03:00,
2013-09-15 08:08:00,46.3,45.5,21.54,WNW,283,0.0,0.0,97,0.00,CLR,,0.01,WeatherDisplay:10.37,2013-09-15 12:08:00,
2013-09-15 08:13:00,46.3,45.5,21.54,WNW,283,0.0,0.0,97,0.00,CLR,,0.01,WeatherDisplay:10.37,2013-09-15 12:13:00,
2013-09-15 08:18:00,46.4,45.6,21.54,WNW,283,0.0,0.0,97,0.00,CLR,,0.01,WeatherDisplay:10.37,2013-09-15 12:18:00,
2013-09-15 08:23:00,46.4,45.6,21.54,WNW,283,0.0,0.0,97,0.00,CLR,,0.01,WeatherDisplay:10.37,2013-09-15 12:23:00,
2013-09-15 08:28:00,46.6,45.8,21.54,WNW,283,0.0,0.0,97,0.00,CLR,,0.01,WeatherDisplay:10.37,2013-09-15 12:28:00,
2013-09-15 08:33:00,46.9,45.8,21.54,WNW,283,0.0,0.0,96,0.00,CLR,,0.01,WeatherDisplay:10.37,2013-09-15 12:33:00,
2013-09-15 08:38:00,46.9,45.8,21.54,WNW,283,0.0,0.0,96,0.00,CLR,,0.01,WeatherDisplay:10.37,2013-09-15 12:38:00,
2013-09-15 08:43:00,46.8,45.7,21.54,WNW,283,0.0,0.0,96,0.00,CLR,,0.01,WeatherDisplay:10.37,2013-09-15 12:43:00,
2013-09-15 08:48:00,46.9,45.8,21.54,WNW,283,0.0,0.0,96,0.00,CLR,,0.01,WeatherDisplay:10.37,2013-09-15 12:48:00,
2013-09-15 08:53:00,47.6,46.5,21.54,WNW,283,0.0,0.0,96,0.00,CLR,,0.01,WeatherDisplay:10.37,2013-09-15 12:53:00,
2013-09-15 08:58:00,47.6,46.8,21.54,WNW,283,0.0,0.0,97,0.00,CLR,,0.01,WeatherDisplay:10.37,2013-09-15 12:58:00,
2013-09-15 09:03:00,47.6,46.8,21.54,WNW,283,0.0,0.0,97,0.00,CLR,,0.01,WeatherDisplay:10.37,2013-09-15 13:03:00,
2013-09-15 09:08:00,48.2,47.1,21.54,WNW,283,0.0,0.0,96,0.00,CLR,,0.01,WeatherDisplay:10.37,2013-09-15 13:08:00,
2013-09-15 09:13:00,48.9,48.1,21.54,WNW,283,0.0,0.0,97,0.00,CLR,,0.01,WeatherDisplay:10.37,2013-09-15 13:13:00,
2013-09-15 09:18:00,49.2,48.1,21.54,West,261,0.0,0.0,96,0.00,CLR,,0.01,WeatherDisplay:10.37,2013-09-15 13:18:00,
2013-09-15 09:23:00,49.7,48.6,21.54,West,261,0.0,0.0,96,0.00,CLR,,0.01,WeatherDisplay:10.37,2013-09-15 13:23:00,
2013-09-15 09:28:00,50.4,49.6,21.54,West,261,0.0,0.0,97,0.00,CLR,,0.01,WeatherDisplay:10.37,2013-09-15 13:28:00,
2013-09-15 09:33:00,51.0,50.2,21.54,West,261,0.0,0.0,97,0.00,CLR,,0.01,WeatherDisplay:10.37,2013-09-15 13:33:00,
2013-09-15 09:38:00,51.8,51.0,21.54,West,261,0.0,0.0,97,0.00,CLR,,0.01,WeatherDisplay:10.37,2013-09-15 13:38:00,
2013-09-15 09:43:00,52.6,51.8,21.54,West,261,0.0,0.0,97,0.00,CLR,,0.01,WeatherDisplay:10.37,2013-09-15 13:43:00,
2013-09-15 09:48:00,53.7,52.9,21.54,West,261,0.0,0.0,97,0.00,CLR,,0.01,WeatherDisplay:10.37,2013-09-15 13:48:00,
2013-09-15 09:53:00,54.9,54.1,21.54,West,261,0.0,0.0,97,0.00,CLR,,0.01,WeatherDisplay:10.37,2013-09-15 13:53:00,
2013-09-15 09:58:00,55.8,55.0,21.54,West,261,0.0,0.0,97,0.00,CLR,,0.01,WeatherDisplay:10.37,2013-09-15 13:58:00,
2013-09-15 10:03:00,56.8,55.7,21.54,West,261,0.0,0.0,96,0.00,CLR,,0.01,WeatherDisplay:10.37,2013-09-15 14:03:00,
2013-09-15 10:08:00,58.0,56.3,21.54,West,261,0.0,0.0,94,0.00,CLR,,0.01,WeatherDisplay:10.37,2013-09-15 14:08:00,
2013-09-15 10:13:00,59.6,56.7,21.54,West,261,0.0,0.0,90,0.00,CLR,,0.01,WeatherDisplay:10.37,2013-09-15 14:13:00,
2013-09-15 10:18:00,61.2,57.0,21.54,West,261,0.0,0.0,86,0.00,CLR,,0.01,WeatherDisplay:10.37,2013-09-15 14:18:00,
2013-09-15 10:23:00,62.4,56.5,21.54,West,261,0.0,0.0,81,0.00,CLR,,0.01,WeatherDisplay:10.37,2013-09-15 14:23:00,
2013-09-15 10:28:00,63.5,56.5,21.54,West,261,0.0,0.0,78,0.00,CLR,,0.01,WeatherDisplay:10.37,2013-09-15 14:28:00,
2013-09-15 10:34:00,65.1,56.6,21.54,West,261,0.0,0.0,74,0.00,CLR,,0.01,WeatherDisplay:10.37,2013-09-15 14:34:00,
2013-09-15 10:39:00,66.8,57.5,21.54,West,261,0.0,0.0,72,0.00,CLR,,0.01,WeatherDisplay:10.37,2013-09-15 14:39:00,
2013-09-15 10:44:00,67.5,57.0,21.54,West,261,0.0,0.0,69,0.00,CLR,,0.01,WeatherDisplay:10.37,2013-09-15 14:44:00,
2013-09-15 10:49:00,67.3,56.0,21.54,SSW,202,5.0,5.0,67,0.00,CLR,,0.01,WeatherDisplay:10.37,2013-09-15 14:49:00,
2013-09-15 10:54:00,65.9,55.4,21.54,SSW,202,0.0,0.0,69,0.00,CLR,,0.01,WeatherDisplay:10.37,2013-09-15 14:54:00,
2013-09-15 10:59:00,66.2,56.1,21.54,SW,215,3.5,3.5,70,0.00,CLR,,0.01,WeatherDisplay:10.37,2013-09-15 14:59:00,
2013-09-15 11:04:00,65.9,55.4,21.54,SSW,197,5.8,5.8,69,0.00,CLR,,0.01,WeatherDisplay:10.37,2013-09-15 15:04:00,
2013-09-15 11:09:00,65.9,56.6,21.54,SSW,194,0.0,0.0,72,0.00,CLR,,0.01,WeatherDisplay:10.37,2013-09-15 15:09:00,
2013-09-15 11:14:00,66.9,57.2,21.54,SSW,211,0.0,0.0,71,0.00,CLR,,0.01,WeatherDisplay:10.37,2013-09-15 15:14:00,
2013-09-15 11:19:00,66.4,56.3,21.54,SSW,198,0.0,0.0,70,0.00,CLR,,0.01,WeatherDisplay:10.37,2013-09-15 15:19:00,
2013-09-15 11:24:00,66.9,57.6,21.54,SW,219,0.0,0.0,72,0.00,CLR,,0.01,WeatherDisplay:10.37,2013-09-15 15:24:00,
2013-09-15 11:29:00,68.0,57.8,21.54,WSW,241,0.0,0.0,70,0.00,CLR,,0.01,WeatherDisplay:10.37,2013-09-15 15:29:00,
2013-09-15 11:34:00,69.6,59.0,21.54,West,260,0.0,0.0,69,0.00,CLR,,0.01,WeatherDisplay:10.37,2013-09-15 15:34:00,
2013-09-15 11:39:00,70.7,59.2,21.54,West,260,0.0,0.0,67,0.00,CLR,,0.01,WeatherDisplay:10.37,2013-09-15 15:39:00,
2013-09-15 11:44:00,71.7,59.3,21.54,West,261,8.1,8.1,65,0.00,CLR,,0.01,WeatherDisplay:10.37,2013-09-15 15:44:00,
2013-09-15 11:49:00,73.0,60.1,21.54,WSW,249,0.0,0.0,64,0.00,CLR,,0.01,WeatherDisplay:10.37,2013-09-15 15:49:00,
2013-09-15 11:54:00,74.3,60.4,21.54,WSW,248,3.5,3.5,62,0.00,CLR,,0.01,WeatherDisplay:10.37,2013-09-15 15:54:00,
2013-09-15 11:59:00,75.2,60.8,21.54,WSW,248,0.0,0.0,61,0.00,CLR,,0.01,WeatherDisplay:10.37,2013-09-15 15:59:00,
2013-09-15 12:04:00,74.5,60.2,21.54,West,261,3.5,3.5,61,0.00,CLR,,0.01,WeatherDisplay:10.37,2013-09-15 16:04:00,
2013-09-15 12:09:00,75.0,60.6,21.54,WSW,254,3.5,3.5,61,0.00,CLR,,0.01,WeatherDisplay:10.37,2013-09-15 16:09:00,
2013-09-15 12:14:00,75.3,60.9,21.54,West,264,3.5,0.0,61,0.00,CLR,,0.01,WeatherDisplay:10.37,2013-09-15 16:14:00,
2013-09-15 12:19:00,75.0,61.5,21.54,WSW,253,0.0,0.0,63,0.00,CLR,,0.01,WeatherDisplay:10.37,2013-09-15 16:19:00,
2013-09-15 12:24:00,75.0,60.6,21.54,SW,215,5.0,5.0,61,0.00,CLR,,0.01,WeatherDisplay:10.37,2013-09-15 16:24:00,
2013-09-15 12:29:00,74.4,61.0,21.54,West,276,3.5,3.5,63,0.00,CLR,,0.01,WeatherDisplay:10.37,2013-09-15 16:29:00,
2013-09-15 12:34:00,74.8,61.4,21.54,West,259,11.5,11.5,63,0.00,CLR,,0.01,WeatherDisplay:10.37,2013-09-15 16:34:00,
2013-09-15 12:39:00,75.6,60.7,21.54,SW,223,5.8,5.8,60,0.00,CLR,,0.01,WeatherDisplay:10.37,2013-09-15 16:39:00,
2013-09-15 12:44:00,74.6,61.2,21.54,West,270,9.2,9.2,63,0.00,CLR,,0.01,WeatherDisplay:10.37,2013-09-15 16:44:00,
2013-09-15 12:49:00,75.1,61.2,21.54,SSW,197,0.0,0.6,62,0.00,CLR,,0.01,WeatherDisplay:10.37,2013-09-15 16:49:00,
2013-09-15 12:54:00,73.9,60.5,21.54,SW,216,6.9,6.9,63,0.00,CLR,,0.01,WeatherDisplay:10.37,2013-09-15 16:54:00,
2013-09-15 12:59:00,72.8,59.9,21.54,SSW,205,0.0,0.0,64,0.00,CLR,,0.01,WeatherDisplay:10.37,2013-09-15 16:59:00,
2013-09-15 13:04:00,72.7,60.3,21.54,SSW,205,0.0,0.0,65,0.00,CLR,,0.01,WeatherDisplay:10.37,2013-09-15 17:04:00,
2013-09-15 13:09:00,72.9,60.0,21.54,SW,218,6.9,6.9,64,0.00,CLR,,0.01,WeatherDisplay:10.37,2013-09-15 17:09:00,
2013-09-15 13:14:00,73.0,60.5,21.54,SSW,202,0.0,0.0,65,0.00,CLR,,0.01,WeatherDisplay:10.37,2013-09-15 17:14:00,
2013-09-15 13:19:00,74.3,60.4,21.54,WSW,253,4.6,4.6,62,0.00,CLR,,0.01,WeatherDisplay:10.37,2013-09-15 17:19:00,
2013-09-15 13:24:00,75.6,60.7,21.54,WSW,241,9.2,9.2,60,0.00,CLR,,0.01,WeatherDisplay:10.37,2013-09-15 17:24:00,
2013-09-15 13:29:00,76.2,60.8,21.54,SSW,205,8.1,8.1,59,0.00,CLR,,0.01,WeatherDisplay:10.37,2013-09-15 17:29:00,
2013-09-15 13:34:00,74.9,59.1,21.54,South,190,9.2,9.2,58,0.00,CLR,,0.01,WeatherDisplay:10.37,2013-09-15 17:34:00,
2013-09-15 13:39:00,74.4,59.1,21.54,SSW,204,10.4,10.4,59,0.00,CLR,,0.01,WeatherDisplay:10.37,2013-09-15 17:39:00,
2013-09-15 13:44:00,75.0,59.2,21.54,SSW,211,13.8,13.8,58,0.00,CLR,,0.01,WeatherDisplay:10.37,2013-09-15 17:44:00,
2013-09-15 13:49:00,74.9,59.1,21.54,SW,221,10.4,10.4,58,0.00,CLR,,0.01,WeatherDisplay:10.37,2013-09-15 17:49:00,
2013-09-15 13:54:00,75.1,59.3,21.54,SW,230,6.0,6.0,58,0.00,CLR,,0.01,WeatherDisplay:10.37,2013-09-15 17:54:00,
2013-09-15 13:59:00,75.1,58.8,21.54,SSW,199,15.0,15.0,57,0.00,CLR,,0.01,WeatherDisplay:10.37,2013-09-15 17:59:00,
2013-09-15 14:04:00,74.1,58.9,21.54,SW,227,11.5,11.5,59,0.00,CLR,,0.01,WeatherDisplay:10.37,2013-09-15 18:04:00,
2013-09-15 14:09:00,74.8,60.0,21.54,SW,232,6.9,6.9,60,0.00,CLR,,0.01,WeatherDisplay:10.37,2013-09-15 18:09:00,
2013-09-15 14:14:00,74.8,59.0,21.54,WSW,251,11.5,11.5,58,0.00,CLR,,0.01,WeatherDisplay:10.37,2013-09-15 18:14:00,
2013-09-15 14:19:00,75.0,58.2,21.54,SSW,213,11.5,11.5,56,0.00,CLR,,0.01,WeatherDisplay:10.37,2013-09-15 18:19:00,
2013-09-15 14:24:00,75.1,58.3,21.54,SSW,199,11.5,11.5,56,0.00,CLR,,0.01,WeatherDisplay:10.37,2013-09-15 18:24:00,
2013-09-15 14:29:00,75.2,58.9,21.54,SSW,207,11.5,11.5,57,0.00,CLR,,0.01,WeatherDisplay:10.37,2013-09-15 18:29:00,
2013-09-15 14:34:00,75.6,58.3,21.54,SW,227,17.3,17.3,55,0.00,CLR,,0.01,WeatherDisplay:10.37,2013-09-15 18:34:00,
2013-09-15 14:40:00,75.5,59.2,21.54,WSW,241,14.0,14.0,57,0.00,CLR,,0.01,WeatherDisplay:10.37,2013-09-15 18:40:00,
2013-09-15 14:45:00,75.6,59.8,21.54,WNW,284,8.1,8.1,58,0.00,CLR,,0.01,WeatherDisplay:10.37,2013-09-15 18:45:00,
2013-09-15 14:50:00,75.9,60.1,21.54,WSW,251,9.2,9.2,58,0.00,CLR,,0.01,WeatherDisplay:10.37,2013-09-15 18:50:00,
2013-09-15 14:55:00,76.6,60.2,21.54,WNW,284,9.2,9.2,57,0.00,CLR,,0.01,WeatherDisplay:10.37,2013-09-15 18:55:00,
2013-09-15 15:00:00,77.0,60.6,21.54,West,264,7.0,7.0,57,0.00,CLR,,0.01,WeatherDisplay:10.37,2013-09-15 19:00:00,
2013-09-15 15:05:00,76.9,60.5,21.54,WSW,244,8.0,8.0,57,0.00,CLR,,0.01,WeatherDisplay:10.37,2013-09-15 19:05:00,
2013-09-15 15:10:00,76.9,59.5,21.54,West,280,15.0,15.0,55,0.00,CLR,,0.01,WeatherDisplay:10.37,2013-09-15 19:10:00,
2013-09-15 15:15:00,76.6,59.2,21.54,WSW,241,11.5,11.5,55,0.00,CLR,,0.01,WeatherDisplay:10.37,2013-09-15 19:15:00,
2013-09-15 15:18:00,76.6,59.2,21.54,WSW,241,12.7,12.7,55,0.00,CLR,,0.01,WeatherDisplay:10.37,2013-09-15 19:18:00,
2013-09-15 15:23:00,76.4,59.0,21.54,WSW,246,11.5,11.5,55,0.00,CLR,,0.01,WeatherDisplay:10.37,2013-09-15 19:23:00,
2013-09-15 15:28:00,76.8,59.9,21.54,SW,231,8.1,8.1,56,0.00,CLR,,0.01,WeatherDisplay:10.37,2013-09-15 19:28:00,
2013-09-15 15:33:00,76.6,60.2,21.54,SW,236,8.1,8.1,57,0.00,CLR,,0.01,WeatherDisplay:10.37,2013-09-15 19:33:00,
2013-09-15 15:38:00,76.8,59.9,21.54,SSW,209,10.4,10.4,56,0.00,CLR,,0.01,WeatherDisplay:10.37,2013-09-15 19:38:00,
2013-09-15 15:43:00,77.0,60.1,21.54,SW,232,10.4,10.4,56,0.00,CLR,,0.01,WeatherDisplay:10.37,2013-09-15 19:43:00,
2013-09-15 15:48:00,76.9,60.0,21.54,WSW,247,8.0,8.0,56,0.00,CLR,,0.01,WeatherDisplay:10.37,2013-09-15 19:48:00,
2013-09-15 15:53:00,77.2,60.3,21.54,SW,225,8.1,8.1,56,0.00,CLR,,0.01,WeatherDisplay:10.37,2013-09-15 19:53:00,
2013-09-15 15:58:00,77.0,60.6,21.54,SW,221,10.0,10.0,57,0.00,CLR,,0.01,WeatherDisplay:10.37,2013-09-15 19:58:00,
2013-09-15 16:03:00,75.7,59.4,21.54,West,259,9.0,9.0,57,0.00,CLR,,0.01,WeatherDisplay:10.37,2013-09-15 20:03:00,
2013-09-15 16:08:00,74.6,59.3,21.54,SSW,211,6.9,6.9,59,0.00,CLR,,0.01,WeatherDisplay:10.37,2013-09-15 20:08:00,
2013-09-15 16:13:00,74.7,59.9,21.54,SW,231,3.5,3.5,60,0.00,CLR,,0.01,WeatherDisplay:10.37,2013-09-15 20:13:00,
2013-09-15 16:18:00,74.7,58.9,21.54,SW,218,6.0,6.0,58,0.00,CLR,,0.01,WeatherDisplay:10.37,2013-09-15 20:18:00,
2013-09-15 16:23:00,74.5,59.7,21.54,WSW,246,9.2,9.2,60,0.00,CLR,,0.01,WeatherDisplay:10.37,2013-09-15 20:23:00,
2013-09-15 16:28:00,74.5,59.2,21.54,SW,218,9.2,9.2,59,0.00,CLR,,0.01,WeatherDisplay:10.37,2013-09-15 20:28:00,
2013-09-15 16:33:00,74.2,59.4,21.54,SW,225,8.1,8.1,60,0.00,CLR,,0.01,WeatherDisplay:10.37,2013-09-15 20:33:00,
2013-09-15 16:38:00,74.3,59.5,21.54,SW,221,5.8,5.8,60,0.00,CLR,,0.01,WeatherDisplay:10.37,2013-09-15 20:38:00,
2013-09-15 16:43:00,74.0,59.7,21.54,WSW,254,9.2,9.2,61,0.00,CLR,,0.01,WeatherDisplay:10.37,2013-09-15 20:43:00,
2013-09-15 16:48:00,73.9,59.6,21.54,SW,229,11.5,11.5,61,0.00,CLR,,0.01,WeatherDisplay:10.37,2013-09-15 20:48:00,
2013-09-15 16:53:00,73.9,59.6,21.54,WSW,255,8.0,8.0,61,0.00,CLR,,0.01,WeatherDisplay:10.37,2013-09-15 20:53:00,
2013-09-15 16:58:00,73.9,60.1,21.54,SW,234,2.3,0.0,62,0.00,CLR,,0.01,WeatherDisplay:10.37,2013-09-15 20:58:00,
2013-09-15 17:03:00,74.1,60.2,21.54,WSW,248,5.8,5.8,62,0.00,CLR,,0.01,WeatherDisplay:10.37,2013-09-15 21:03:00,
2013-09-15 17:08:00,74.0,60.6,21.54,WSW,240,3.5,3.5,63,0.00,CLR,,0.01,WeatherDisplay:10.37,2013-09-15 21:08:00,
2013-09-15 17:13:00,74.1,60.7,21.54,West,261,3.5,3.5,63,0.00,CLR,,0.01,WeatherDisplay:10.37,2013-09-15 21:13:00,
2013-09-15 17:18:00,74.1,60.7,21.54,WSW,239,0.0,0.0,63,0.00,CLR,,0.01,WeatherDisplay:10.37,2013-09-15 21:18:00,
2013-09-15 17:23:00,73.9,61.0,21.54,WSW,237,0.0,0.0,64,0.00,CLR,,0.01,WeatherDisplay:10.37,2013-09-15 21:23:00,
2013-09-15 17:28:00,73.9,61.0,21.54,WSW,246,0.0,0.0,64,0.00,CLR,,0.01,WeatherDisplay:10.37,2013-09-15 21:28:00,
2013-09-15 17:33:00,73.8,60.4,21.54,WSW,242,0.0,0.0,63,0.00,CLR,,0.01,WeatherDisplay:10.37,2013-09-15 21:33:00,
2013-09-15 17:38:00,73.7,60.8,21.54,WSW,248,4.0,4.0,64,0.00,CLR,,0.01,WeatherDisplay:10.37,2013-09-15 21:38:00,
2013-09-15 17:43:00,73.5,61.0,21.54,WSW,246,3.5,3.5,65,0.00,CLR,,0.01,WeatherDisplay:10.37,2013-09-15 21:43:00,
2013-09-15 17:48:00,73.5,61.0,21.54,WSW,246,0.0,0.0,65,0.00,CLR,,0.01,WeatherDisplay:10.37,2013-09-15 21:48:00,
2013-09-15 17:53:00,73.7,61.2,21.54,WSW,246,4.0,4.0,65,0.00,CLR,,0.01,WeatherDisplay:10.37,2013-09-15 21:53:00,
2013-09-15 17:58:00,73.5,60.6,21.54,WSW,246,0.0,0.0,64,0.00,CLR,,0.01,WeatherDisplay:10.37,2013-09-15 21:58:00,
2013-09-15 18:03:00,73.4,60.9,21.54,WSW,246,0.0,0.0,65,0.00,CLR,,0.01,WeatherDisplay:10.37,2013-09-15 22:03:00,
2013-09-15 18:08:00,73.4,60.9,21.54,WSW,246,0.0,0.0,65,0.00,CLR,,0.01,WeatherDisplay:10.37,2013-09-15 22:08:00,
2013-09-15 18:13:00,73.3,60.8,21.54,WSW,246,0.0,0.0,65,0.00,CLR,,0.01,WeatherDisplay:10.37,2013-09-15 22:13:00,
2013-09-15 18:18:00,73.2,60.7,21.54,WSW,246,0.0,0.0,65,0.00,CLR,,0.01,WeatherDisplay:10.37,2013-09-15 22:18:00,
2013-09-15 18:23:00,73.1,60.6,21.54,WSW,246,0.0,0.0,65,0.00,CLR,,0.01,WeatherDisplay:10.37,2013-09-15 22:23:00,
2013-09-15 18:28:00,73.0,61.0,21.54,WSW,246,0.0,0.0,66,0.00,CLR,,0.01,WeatherDisplay:10.37,2013-09-15 22:28:00,
2013-09-15 18:33:00,72.9,62.1,21.54,WSW,246,0.0,0.0,69,0.00,CLR,,0.01,WeatherDisplay:10.37,2013-09-15 22:33:00,
2013-09-15 18:38:00,72.6,62.3,21.54,WSW,246,0.0,0.0,70,0.00,CLR,,0.01,WeatherDisplay:10.37,2013-09-15 22:38:00,
2013-09-15 18:43:00,72.5,63.4,21.54,WSW,246,0.0,0.0,73,0.00,CLR,,0.01,WeatherDisplay:10.37,2013-09-15 22:43:00,
2013-09-15 18:49:00,72.3,63.5,21.54,WSW,246,0.0,0.0,74,0.00,CLR,,0.01,WeatherDisplay:10.37,2013-09-15 22:49:00,
2013-09-15 18:54:00,72.0,63.3,21.54,WSW,246,0.0,0.0,74,0.00,CLR,,0.01,WeatherDisplay:10.37,2013-09-15 22:54:00,
2013-09-15 18:59:00,71.8,63.4,21.54,WSW,246,0.0,0.0,75,0.00,CLR,,0.01,WeatherDisplay:10.37,2013-09-15 22:59:00,
2013-09-15 19:04:00,71.4,63.4,21.54,WSW,246,0.0,0.0,76,0.00,CLR,,0.01,WeatherDisplay:10.37,2013-09-15 23:04:00,
2013-09-15 19:09:00,70.9,63.7,21.54,WSW,246,0.0,0.0,78,0.00,CLR,,0.01,WeatherDisplay:10.37,2013-09-15 23:09:00,
2013-09-15 19:14:00,70.1,63.3,21.54,WSW,246,0.0,0.0,79,0.00,CLR,,0.01,WeatherDisplay:10.37,2013-09-15 23:14:00,
2013-09-15 19:19:00,69.0,62.9,31.40,WSW,246,0.0,0.0,81,0.00,CLR,,0.01,WeatherDisplay:10.37,2013-09-15 23:19:00,
2013-09-15 19:24:00,68.4,62.7,21.54,WSW,246,0.0,0.0,82,0.00,CLR,,0.01,WeatherDisplay:10.37,2013-09-15 23:24:00,
2013-09-15 19:29:00,68.0,62.6,21.54,WSW,246,0.0,0.0,83,0.00,CLR,,0.01,WeatherDisplay:10.37,2013-09-15 23:29:00,
2013-09-15 19:34:00,67.6,62.6,21.54,WSW,246,0.0,0.0,84,0.00,CLR,,0.01,WeatherDisplay:10.37,2013-09-15 23:34:00,
2013-09-15 19:39:00,67.0,62.3,21.54,WSW,246,0.0,0.0,85,0.00,CLR,,0.01,WeatherDisplay:10.37,2013-09-15 23:39:00,
2013-09-15 19:44:00,66.4,62.1,21.54,WSW,246,0.0,0.0,86,0.00,CLR,,0.01,WeatherDisplay:10.37,2013-09-15 23:44:00,
2013-09-15 19:49:00,66.0,61.7,21.54,WSW,246,0.0,0.0,86,0.00,CLR,,0.01,WeatherDisplay:10.37,2013-09-15 23:49:00,
2013-09-15 19:54:00,65.6,61.6,21.54,WSW,246,0.0,0.0,87,0.00,CLR,,0.01,WeatherDisplay:10.37,2013-09-15 23:54:00,
2013-09-15 19:59:00,65.2,61.2,21.54,WSW,246,0.0,0.0,87,0.00,CLR,,0.01,WeatherDisplay:10.37,2013-09-15 23:59:00,
2013-09-15 20:04:00,64.8,61.2,21.54,WSW,246,0.0,0.0,88,0.00,CLR,,0.01,WeatherDisplay:10.37,2013-09-16 00:04:00,
2013-09-15 20:09:00,64.3,61.0,21.54,WSW,246,0.0,0.0,89,0.00,CLR,,0.01,WeatherDisplay:10.37,2013-09-16 00:09:00,
2013-09-15 20:14:00,64.0,61.0,21.54,WSW,246,0.0,0.0,90,0.00,CLR,,0.01,WeatherDisplay:10.37,2013-09-16 00:14:00,
2013-09-15 20:19:00,63.7,60.7,21.54,WSW,246,0.0,0.0,90,0.00,CLR,,0.01,WeatherDisplay:10.37,2013-09-16 00:19:00,
2013-09-15 20:24:00,63.4,60.4,21.54,WSW,246,0.0,0.0,90,0.00,CLR,,0.01,WeatherDisplay:10.37,2013-09-16 00:24:00,
2013-09-15 20:29:00,63.2,60.5,21.54,WSW,246,0.0,0.0,91,0.00,CLR,,0.01,WeatherDisplay:10.37,2013-09-16 00:29:00,
2013-09-15 20:34:00,63.1,60.4,21.54,WSW,246,0.0,0.0,91,0.00,CLR,,0.01,WeatherDisplay:10.37,2013-09-16 00:34:00,
2013-09-15 20:39:00,62.9,60.2,21.54,WSW,246,0.0,0.0,91,0.00,CLR,,0.01,WeatherDisplay:10.37,2013-09-16 00:39:00,
2013-09-15 20:44:00,62.8,60.1,21.54,WSW,246,0.0,0.0,91,0.00,CLR,,0.01,WeatherDisplay:10.37,2013-09-16 00:44:00,
2013-09-15 20:49:00,62.7,60.0,21.54,WSW,246,0.0,0.0,91,0.00,CLR,,0.01,WeatherDisplay:10.37,2013-09-16 00:49:00,
2013-09-15 20:54:00,62.6,60.2,21.54,WSW,246,0.0,0.0,92,0.00,CLR,,0.01,WeatherDisplay:10.37,2013-09-16 00:54:00,
2013-09-15 20:59:00,62.6,60.2,21.54,WSW,246,0.0,0.0,92,0.00,CLR,,0.01,WeatherDisplay:10.37,2013-09-16 00:59:00,
2013-09-15 21:04:00,62.5,60.1,21.54,WSW,246,0.0,0.0,92,0.00,CLR,,0.01,WeatherDisplay:10.37,2013-09-16 01:04:00,
2013-09-15 21:09:00,62.4,60.0,21.54,WSW,246,0.0,0.0,92,0.00,CLR,,0.01,WeatherDisplay:10.37,2013-09-16 01:09:00,
2013-09-15 21:14:00,62.3,59.9,21.54,WSW,246,0.0,0.0,92,0.00,CLR,,0.01,WeatherDisplay:10.37,2013-09-16 01:14:00,
2013-09-15 21:19:00,62.1,59.7,21.54,WSW,246,0.0,0.0,92,0.00,CLR,,0.01,WeatherDisplay:10.37,2013-09-16 01:19:00,
2013-09-15 21:24:00,61.9,59.5,21.54,WSW,246,0.0,0.0,92,0.00,CLR,,0.01,WeatherDisplay:10.37,2013-09-16 01:24:00,
2013-09-15 21:29:00,61.6,59.3,21.54,WSW,246,0.0,0.0,92,0.00,CLR,,0.01,WeatherDisplay:10.37,2013-09-16 01:29:00,
2013-09-15 21:34:00,61.4,59.4,21.54,WSW,246,0.0,0.0,93,0.00,CLR,,0.01,WeatherDisplay:10.37,2013-09-16 01:34:00,
2013-09-15 21:39:00,61.2,59.2,21.54,WSW,246,0.0,0.0,93,0.00,CLR,,0.01,WeatherDisplay:10.37,2013-09-16 01:39:00,
2013-09-15 21:44:00,61.1,59.1,21.54,WSW,246,0.0,0.0,93,0.00,CLR,,0.01,WeatherDisplay:10.37,2013-09-16 01:44:00,
2013-09-15 21:49:00,60.9,58.9,21.54,WSW,246,0.0,0.0,93,0.00,CLR,,0.01,WeatherDisplay:10.37,2013-09-16 01:49:00,
2013-09-15 21:54:00,60.8,58.8,21.54,WSW,246,0.0,0.0,93,0.00,CLR,,0.01,WeatherDisplay:10.37,2013-09-16 01:54:00,
2013-09-15 21:59:00,60.7,58.7,21.54,WSW,246,0.0,0.0,93,0.00,CLR,,0.01,WeatherDisplay:10.37,2013-09-16 01:59:00,
2013-09-15 22:04:00,60.5,58.5,21.54,WSW,246,0.0,0.0,93,0.00,CLR,,0.01,WeatherDisplay:10.37,2013-09-16 02:04:00,
2013-09-15 22:09:00,60.4,58.4,21.54,WSW,246,0.0,0.0,93,0.00,CLR,,0.01,WeatherDisplay:10.37,2013-09-16 02:09:00,
2013-09-15 22:14:00,60.3,58.6,21.54,WSW,246,0.0,0.0,94,0.00,CLR,,0.01,WeatherDisplay:10.37,2013-09-16 02:14:00,
2013-09-15 22:19:00,60.2,58.5,21.54,WSW,246,0.0,0.0,94,0.00,CLR,,0.01,WeatherDisplay:10.37,2013-09-16 02:19:00,
2013-09-15 22:24:00,60.0,58.3,21.54,WSW,246,0.0,0.0,94,0.00,CLR,,0.01,WeatherDisplay:10.37,2013-09-16 02:24:00,
2013-09-15 22:29:00,59.9,58.2,21.54,WSW,246,0.0,0.0,94,0.00,CLR,,0.01,WeatherDisplay:10.37,2013-09-16 02:29:00,
2013-09-15 22:34:00,59.8,58.1,21.54,WSW,246,0.0,0.0,94,0.00,CLR,,0.01,WeatherDisplay:10.37,2013-09-16 02:34:00,
2013-09-15 22:39:00,59.7,58.0,21.54,WSW,246,0.0,0.0,94,0.00,CLR,,0.01,WeatherDisplay:10.37,2013-09-16 02:39:00,
2013-09-15 22:44:00,59.8,58.1,21.54,WSW,246,0.0,0.0,94,0.00,CLR,,0.01,WeatherDisplay:10.37,2013-09-16 02:44:00,
2013-09-15 22:49:00,59.7,58.0,21.54,WSW,246,0.0,0.0,94,0.00,CLR,,0.01,WeatherDisplay:10.37,2013-09-16 02:49:00,
2013-09-15 22:54:00,59.7,58.0,21.54,WSW,246,0.0,0.0,94,0.00,CLR,,0.01,WeatherDisplay:10.37,2013-09-16 02:54:00,
2013-09-15 22:59:00,59.7,58.0,21.54,WSW,246,0.0,0.0,94,0.00,CLR,,0.01,WeatherDisplay:10.37,2013-09-16 02:59:00,
2013-09-15 23:04:00,59.8,58.1,21.54,WSW,246,0.0,0.0,94,0.00,CLR,,0.01,WeatherDisplay:10.37,2013-09-16 03:04:00,
2013-09-15 23:09:00,59.7,58.0,21.54,WSW,246,0.0,0.0,94,0.00,CLR,,0.01,WeatherDisplay:10.37,2013-09-16 03:09:00,
2013-09-15 23:14:00,59.5,57.8,21.54,WSW,246,0.0,0.0,94,0.00,CLR,,0.01,WeatherDisplay:10.37,2013-09-16 03:14:00,
2013-09-15 23:19:00,59.5,57.8,21.54,WSW,246,0.0,0.0,94,0.00,CLR,,0.01,WeatherDisplay:10.37,2013-09-16 03:19:00,
2013-09-15 23:24:00,59.3,57.6,21.54,WSW,246,0.0,0.0,94,0.00,CLR,,0.01,WeatherDisplay:10.37,2013-09-16 03:24:00,
2013-09-15 23:29:00,59.2,57.5,21.54,WSW,246,0.0,0.0,94,0.00,CLR,,0.01,WeatherDisplay:10.37,2013-09-16 03:29:00,
2013-09-15 23:34:00,59.0,57.3,21.54,WSW,246,0.0,0.0,94,0.00,CLR,,0.01,WeatherDisplay:10.37,2013-09-16 03:34:00,
2013-09-15 23:39:00,59.0,57.3,21.54,WSW,246,0.0,0.0,94,0.00,CLR,,0.01,WeatherDisplay:10.37,2013-09-16 03:39:00,
2013-09-15 23:44:00,59.0,57.6,21.54,WSW,246,0.0,0.0,95,0.00,CLR,,0.01,WeatherDisplay:10.37,2013-09-16 03:44:00,
2013-09-15 23:49:00,59.0,57.6,21.54,WSW,246,0.0,0.0,95,0.00,CLR,,0.01,WeatherDisplay:10.37,2013-09-16 03:49:00,
2013-09-15 23:54:00,59.0,57.6,21.54,WSW,246,0.0,0.0,95,0.00,CLR,,0.01,WeatherDisplay:10.37,2013-09-16 03:54:00,
2013-09-15 23:59:00,59.0,57.6,21.54,WSW,246,0.0,0.0,95,0.00,CLR,,0.01,WeatherDisplay:10.37,2013-09-16 03:59:00,